Home   Weather   Burleson   Past weeks
Flag for USA

Past Weather in Burleson, Texas, USA — Yesterday and Last 2 Weeks

Now
73 °F

Sunny.


Feels Like: 75 °F
Forecast: 89 / 72 °F
Wind: 8 mph from North

Location: Burleson-Rendon

Current Time: Jul 23, 2019 at 8:24:58 am

Latest Report: Jul 23, 2019 at 7:48 am


Visibility: 10 mi

Pressure: 30.16 "Hg

Humidity: 74%

Dew Point: 64 °F

Location of BurlesonLocation

Past Weather in Burleson — Graph

°F

Burleson Temperature Yesterday

Maximum temperature yesterday: 97 °F (at 12:50 pm)
Minimum temperature yesterday: 75 °F (at 6:15 am)
Average temperature yesterday: 82 °F

High & Low Weather Summary for the Past Weeks

 TemperatureHumidityPressure
High99 °F (Jul 9, 3:50 pm)96% (Jul 10, 7:55 pm)30.14 "Hg (Jul 10, 7:55 pm)
Low69 °F (Jul 23, 6:15 am)29% (Jul 21, 4:47 pm)29.85 "Hg (Jul 12, 6:55 pm)
Average82 °F68%29.95 "Hg
* Reported Jul 8 6:35 am — Jul 23 6:46 am, Burleson. Weather by CustomWeather, © 2019

Note: Actual official high and low records may vary slightly from our data, if they occured in-between our weather recording intervals... More about our weather records

Advertising

Burleson Weather History for the Previous 24 Hours

Scroll right to see more
 ConditionsComfort  
Time TempWeatherWind HumidityBarometerVisibility
6:46 am
Tue, Jul 23
70 °FSunny.6 mph78%30.14 "Hg10 mi
6:35 am69 °FClear.6 mph81%30.14 "Hg10 mi
6:15 am69 °FClear.6 mph81%30.14 "Hg10 mi
5:55 am70 °FClear.6 mph79%30.13 "Hg10 mi
5:35 am71 °FClear.7 mph77%30.13 "Hg10 mi
5:15 am71 °FClear.7 mph76%30.12 "Hg10 mi
4:55 am71 °FClear.6 mph74%30.12 "Hg10 mi
4:35 am73 °FClear.5 mph68%30.12 "Hg10 mi
4:15 am74 °FClear.6 mph66%30.12 "Hg10 mi
3:35 am75 °FClear.6 mph63%30.11 "Hg10 mi
3:15 am76 °FClear.7 mph63%30.11 "Hg10 mi
2:55 am76 °FClear.8 mph62%30.11 "Hg10 mi
2:35 am77 °FClear.8 mph61%30.11 "Hg10 mi
2:15 am77 °FClear.8 mph61%30.10 "Hg10 mi
1:55 am78 °FClear.8 mph62%30.10 "Hg10 mi
1:35 am78 °FClear.7 mph60%30.11 "Hg10 mi
1:15 am78 °FClear.7 mph60%30.11 "Hg10 mi
12:55 am79 °FClear.8 mph62%30.11 "Hg10 mi
12:35 am80 °FClear.9 mph61%30.11 "Hg10 mi
12:15 am78 °FClear.7 mph70%30.11 "Hg10 mi
11:55 pm
Mon, Jul 22
79 °FPassing clouds.3 mph68%30.11 "Hg10 mi
11:35 pm80 °FClear.6 mph67%30.10 "Hg10 mi
11:15 pm81 °FClear.5 mph64%30.10 "Hg10 mi
10:55 pm82 °FClear.8 mph61%30.09 "Hg10 mi
10:35 pm82 °FClear.9 mph61%30.08 "Hg10 mi
9:55 pm82 °FClear.8 mph59%30.06 "Hg10 mi
9:35 pm83 °FClear.9 mph59%30.05 "Hg10 mi
9:15 pm84 °FClear.8 mph57%30.04 "Hg10 mi
8:55 pm85 °FClear.12 mph57%30.04 "Hg10 mi
8:35 pm85 °FClear.9 mph57%30.03 "Hg10 mi
8:15 pm86 °FSunny.14 mph55%30.03 "Hg10 mi
7:55 pm87 °FSunny.13 mph51%30.02 "Hg10 mi
6:52 pm90 °FScattered clouds.12 mph52%30.00 "Hg10 mi
5:53 pm91 °FScattered clouds.12 mph49%29.99 "Hg10 mi
4:55 pm93 °FPartly sunny.16 mph49%30.00 "Hg10 mi
3:50 pm82 °FScattered clouds.No wind70%30.00 "Hg10 mi
2:52 pm84 °FPartly sunny.5 mph62%30.03 "Hg7 mi
1:49 pm90 °FThunderstorms. Broken clouds.13 mph52%30.03 "Hg7 mi
1:24 pm93 °FThundershowers. Partly sunny.10 mph47%30.03 "Hg7 mi
12:50 pm97 °FScattered clouds.9 mph42%30.03 "Hg7 mi
11:47 am93 °FSunny.10 mph47%30.05 "Hg10 mi
10:46 am91 °FSunny.10 mph49%30.05 "Hg10 mi
9:51 am88 °FSunny.9 mph59%30.05 "Hg7 mi
8:46 am82 °FSunny.6 mph70%30.05 "Hg7 mi
Weather by CustomWeather, © 2019

See weather overview